Retour au catalogue

ONEWEB-0062

ActifCommunicationsPO
NORAD 45163·PAYLOAD·🇬🇧 United Kingdom

Lancé Feb 6, 2020 depuis Baikonur Cosmodrome

Loading…

Prochains Passages (prochaines 24 heures)

TLE

FraisSource: CelesTrak SupGP

Époque: Sep 14, 2026, 21:33 UTC

1 45163C 20008AJ  26257.89810600 -.00000266  00000+0 -76405-3 0  2570
2 45163  87.8905  18.4078 0001577  92.6182  20.6861 13.10370623    14

Suivez ONEWEB-0062 en temps réel avec AllMySat

Download on the App Store